www.pogodaiklimat.ru
ПОГОДА в Пейдже
Время
и дата
20:53 05.02
21:53 05.02
22:53 05.02
23:53 05.02
00:53 06.02
01:53 06.02
02:53 06.02
03:53 06.02
04:53 06.02
05:53 06.02
06:53 06.02
07:53 06.02
08:53 06.02
09:53 06.02
10:53 06.02
11:53 06.02
12:53 06.02
13:53 06.02
14:19 06.02
14:53 06.02
15:53 06.02
16:53 06.02
17:53 06.02
18:53 06.02
19:53 06.02
20:53 06.02
21:53 06.02
22:53 06.02
23:53 06.02
00:53 07.02
01:53 07.02
02:53 07.02
03:53 07.02
04:53 07.02
05:53 07.02
06:53 07.02
07:53 07.02
08:53 07.02
09:53 07.02
10:53 07.02
11:53 07.02
12:53 07.02
13:53 07.02
14:53 07.02
15:53 07.02
16:53 07.02
17:53 07.02
18:53 07.02
Ветер
(напр.,м/с)
Видим. Явления Облачность Т
(С)
Тd
(С)
f
(%)
Тe
(С)
Тes
(С)
Комфортность P
(гПа)
Po
(гПа)
Тmin
(С)
Tmax
(С)
R
(мм)
R24
(мм)
S
(см)
СЗ 5
{8}
16 км 8/2 1650 m
[Ac]
+8.9 -1.1 49 +6 +6 1011.9 864.8
З 4 16 км 10/10 1080 м +6.7 -3.3 49 +4 +4 1014.2 866.6
З 5 16 км 8/0 2850 m
[Ac]
+6.1 -4.4 47 +2 +2 1014.3 866.6 +6.1 +13.9
ЮЗ 3 16 км ясно +5.0 -4.4 51 +2 +2 1014.2 866.6
З 3 16 км ясно +5.0 -5.0 48 +2 +2 1013.5 866.3
З 3 16 км 5/0 2100 m
[Ac]
+4.4 -5.0 50 +1 +1 1013.3 866.3
С 3 16 км ясно +3.3 -4.4 57 0 0 1013.9 866.8
штиль 0 16 км ясно +1.7 -4.4 64 +1 +1 1014.3 867.1
штиль 0 16 км ясно +0.6 -4.4 69 0 0 1014.8 867.4 +6.1
нст 2 16 км ясно +1.1 -4.4 67 -2 -2 1015.6 867.7
СЗ 2 16 км ясно +1.1 -5.6 61 -2 -2 1016.1 868.0
штиль 0 16 км ясно +1.1 -5.0 64 0 0 1016.8 868.6
штиль 0 16 км ясно +2.8 -4.4 59 +2 +3 1016.9 868.9
С 2 16 км ясно +5.0 -6.1 44 +3 +5 1016.9 868.9
С 4 16 км ясно +6.7 -7.8 35 +4 +7 1017.6 869.4 +6.7
штиль 0 16 км ясно +7.2 -9.4 30 +7 +16 опасность
простуды
1017.8 869.7
СЗ 2 16 км ясно +8.3 -9.4 27 +7 +15 1016.9 869.2
СВ 2 16 км ясно +9.4 -10.0 24 +9 +17 1016.0 868.3
нст 2 5 км мгла 2/2 60 м +8.9 -10.6 24 +8 +13 868.6
нст 2 16 км 2/0 3000 m
[Ac]
+9.4 -11.1 22 +9 +14 1016.3 868.6
СВ 3 16 км 5/0 2100 m
[Ac]
+8.3 -9.4 27 +7 +9 1017.1 868.9
З 2 16 км 2/0 2700 m
[Ac]
+8.3 -10.0 26 +7 +9 1017.5 868.9 +6.7 +10.6
СВ 6
{10}
16 км 10/8 1140 m
[Ac]
+6.7 -6.1 40 +3 +3 1019.3 870.3
штиль 0 16 км 10/0 2850 m
[Ac]
+6.1 -6.7 39 +6 +6 1019.7 870.6
З 2 16 км ясно +5.0 -6.1 44 +3 +3 1020.4 870.9
СЗ 2 16 км ясно +4.4 -8.3 39 +3 +3 1020.9 871.5
СЗ 4 16 км ясно +4.4 -9.4 36 +1 +1 1020.9 872.1
СЗ 4 16 км ясно +3.3 -8.3 42 -1 -1 1021.3 872.3 +3.3 +9.4
З 3 16 км ясно +3.3 -8.3 42 0 0 1021.8 872.9
СЗ 4 16 км ясно +3.3 -8.3 42 -1 -1 1021.6 872.9
СЗ 5 16 км ясно +2.8 -8.3 44 -2 -2 1021.8 872.9
З 3 16 км ясно +2.2 -7.8 48 -1 -1 1022.2 873.2
З 3 16 км ясно +2.2 -8.3 46 -1 -1 1022.6 873.5
СЗ 3 16 км ясно +1.7 -8.3 47 -2 -2 1023.5 874.1 +1.7 +3.9
СЗ 2 16 км ясно +1.1 -8.9 47 -2 -2 1024.4 874.4
штиль 0 14 км ясно -0.6 -8.3 56 -1 -1 1025.5 875.2
штиль 0 16 км ясно +0.6 -8.3 51 0 0 1026.2 875.5
СЗ 3 16 км ясно +2.8 -8.3 44 0 0 1026.7 876.4
СЗ 4 16 км ясно +3.9 -8.3 41 0 +2 1026.6 876.4
С 2 16 км ясно +6.1 -9.4 32 +5 +9 1026.8 877.0 -1.1 +6.1
нст 2 16 км ясно +6.7 -10.0 29 +5 +12 1026.6 876.7
штиль 0 16 км ясно +7.8 -10.6 26 +8 +19 опасность
простуды
1025.6 875.8
С 2 16 км ясно +8.3 -11.1 24 +7 +15 1024.9 875.5
С 3 16 км ясно +8.9 -10.6 24 +7 +13 1024.6 875.2
СВ 3 16 км ясно +9.4 -10.6 23 +8 +12 1024.3 874.9
В 2 16 км ясно +8.9 -10.0 25 +8 +10 1024.2 874.7 +5.6 +9.4
ЮВ 2 16 км ясно +6.7 -10.0 29 +5 +6 1024.6 874.7
ЮВ 2 16 км ясно +5.6 -9.4 33 +4 +4 1025.3 874.9
Местоположение метеостанции Page Municipal Airport: широта 36.9206 долгота -111.4481 высота над уровнем моря 1314 м.
В архиве по умолчанию представлена погода в Пейдже за последние 1-2 суток. Обновление информации о фактической погоде в базе происходит ежечасно! Архивные данные за месяц целиком и за предыдущие месяцы Вы можете получить, выбрав интересующий диапазон дат из раскрывающегося списка и нажав кнопку "Ввод!".
Внимание! Архив погоды МЕТАР в базе сайта по станциям, не включенным в климатический монитор, хранится не более 60 дней. Нет смысла пытаться выбрать более раннюю дату.
*Определитесь, кто Вы:
Внимание! Время в таблицах - местное (без учета летнего времени). Для получения всемирного времени необходимо вычесть поправку, которая равна -7 ч.
Смотрите также архив погоды в соседних городах и на ближайших метеорологических станциях:
Партнеры нашего сайта:      
Пояснения к столбцам:
  • Ветер - указаны скорость ветра в м/с - средняя за 10 мин, порывы в срок и между сроками (в фигурных скобках) и направление, откуда дует ветер: С - северный,
  • СВ - северо-восточный, В - восточный, ЮВ - юго-восточный, Ю - южный, ЮЗ - юго-западный, З - западный, СЗ - северо-западный.
  • Видимость - горизонтальная дальность видимости в метрах или километрах. При видимости от 1 до 10 км при отсутствии осадков обычно наблюдается дымка, при ухудшении видимости до 1 км и менее - туман. В сухую погоду видимость может ухудшаться дымом, пылью или мглою.
  • Явления - указаны атмосферные явления, наблюдавшиеся в срок или в последний час перед сроком; фигурными скобками обозначены явления, наблюдавшиеся между сроками (за 1-3 часа до срока); квадратными скобками обозначены град или гололедные отложения с указанием их диаметра в мм.
  • Облачность - указаны через наклонную черту общая и нижняя облачность в баллах и высота нижней границы облаков в метрах; квадратными скобками обозначены формы облаков: Ci - перистые, Cs - перисто-слоистые, Cc - перисто-кучевые, Ac - высококучевые, As - высокослоистые, Sc - слоисто-кучевые, Ns - слоисто-дождевые, Cu - кучевые, Cb - кучево-дождевые. Подробнее классификацию облаков см. в Атласе облаков (PDF).
  • T - Температура воздуха - температура, измеренная на высоте 2 м над землей.
  • Td - Температура точки росы - температура, при понижении до которой содержащийся в воздухе водяной пар достигнет насыщения.
  • f - Относительная влажность воздуха - влажноcть воздуха, измеренная на высоте 2 м над землей.
  • Te - Эффективная температура - температура, которую ощущает одетый по сезону человек в тени. Характеристика душности погоды. При расчете учитывается влияние влажности воздуха и скорости ветра на теплоощущения человека.
  • Tes - Эффективная температура на солнце - температура, которую ощущает человек, с поправкой на солнечный нагрев. Характеристика знойности погоды. Зависит от высоты солнца над горизонтом, облачности и скорости ветра. Ночью, в пасмурную погоду, а также при ветре 12 м/с и более поправка равна нулю.
  • P - Атмосферное давление - приведенное к уровню моря атмосферное давление.
  • Po - Атмосферное давление - измеренное на уровне метеостанции атмосферное давление.
  • Tmin - Минимальная температура - минимум температуры воздуха на высоте 2 м над землей.
  • Tmax - Максимальная температура - максимум температуры воздуха на высоте 2 м над землей.
  • R - Количество осадков - Количество выпавших осадков за период времени, мм. При наведении курсора мыши на число - период времени, за который выпало указанное количество осадков.
  • R24 - Количество осадков - Количество выпавших осадков за 24 часа, мм.
  • S - Снежный покров - Высота снежного покрова, см. При наведении курсора мыши на число - состояние снежного покрова и степень покрытия местности в баллах.